Time,TemperatureF,DewpointF,PressureIn,WindDirection,WindDirectionDegrees,WindSpeedMPH,WindSpeedGustMPH,Humidity,HourlyPrecipIn,Conditions,Clouds,dailyrainin,SoftwareType,DateUTC
2013-06-24 00:01:00,78.3,69.0,30.02,South,180,4.0,6.5,73,0.00,,,0.00,WUHU216HW,2013-06-24 04:01:00,
2013-06-24 00:06:00,78.1,69.1,30.01,South,180,3.4,6.5,74,0.00,,,0.00,WUHU216HW,2013-06-24 04:06:00,
2013-06-24 00:11:00,77.9,68.9,30.01,SW,225,5.4,8.1,74,0.00,,,0.00,WUHU216HW,2013-06-24 04:11:00,
2013-06-24 00:16:00,77.6,68.6,30.01,WSW,248,5.4,8.1,74,0.00,,,0.00,WUHU216HW,2013-06-24 04:16:00,
2013-06-24 00:21:00,77.4,68.9,30.01,SW,225,2.7,6.9,75,0.00,,,0.00,WUHU216HW,2013-06-24 04:21:00,
2013-06-24 00:26:00,77.4,68.9,30.01,SW,225,2.7,6.9,75,0.00,,,0.00,WUHU216HW,2013-06-24 04:26:00,
2013-06-24 00:31:00,77.6,69.0,30.01,SW,225,3.4,6.3,75,0.00,,,0.00,WUHU216HW,2013-06-24 04:31:00,
2013-06-24 00:36:00,77.6,69.0,30.01,SSW,203,3.4,6.3,75,0.00,,,0.00,WUHU216HW,2013-06-24 04:36:00,
2013-06-24 00:41:00,77.4,68.9,30.01,SW,225,4.7,7.2,75,0.00,,,0.00,WUHU216HW,2013-06-24 04:41:00,
2013-06-24 00:46:00,77.2,68.7,30.01,SW,225,3.6,7.2,75,0.00,,,0.00,WUHU216HW,2013-06-24 04:46:00,
2013-06-24 00:51:00,77.0,68.5,30.01,SW,225,6.3,6.3,75,0.00,,,0.00,WUHU216HW,2013-06-24 04:51:00,
2013-06-24 00:56:00,76.9,68.7,30.00,SW,225,5.4,6.5,76,0.00,,,0.00,WUHU216HW,2013-06-24 04:56:00,
2013-06-24 01:01:00,77.0,68.9,30.00,SW,225,6.7,6.7,76,0.00,,,0.00,WUHU216HW,2013-06-24 05:01:00,
2013-06-24 01:06:00,77.2,68.7,30.00,South,180,4.5,6.9,75,0.00,,,0.00,WUHU216HW,2013-06-24 05:06:00,
2013-06-24 01:11:00,77.0,68.5,30.00,SW,225,3.4,7.2,75,0.00,,,0.00,WUHU216HW,2013-06-24 05:11:00,
2013-06-24 01:16:00,77.0,68.9,30.00,SW,225,4.0,7.2,76,0.00,,,0.00,WUHU216HW,2013-06-24 05:16:00,
2013-06-24 01:21:00,76.7,68.5,30.00,WSW,248,5.4,5.6,76,0.00,,,0.00,WUHU216HW,2013-06-24 05:21:00,
2013-06-24 01:26:00,76.5,68.8,30.01,WSW,248,3.4,5.4,77,0.00,,,0.00,WUHU216HW,2013-06-24 05:26:00,
2013-06-24 01:31:00,76.5,68.8,30.00,SW,225,4.7,5.4,77,0.00,,,0.00,WUHU216HW,2013-06-24 05:31:00,
2013-06-24 01:36:00,76.5,68.8,30.00,WSW,248,5.4,5.4,77,0.00,,,0.00,WUHU216HW,2013-06-24 05:36:00,
2013-06-24 01:41:00,76.7,68.5,30.00,SW,225,5.4,5.4,76,0.00,,,0.00,WUHU216HW,2013-06-24 05:41:00,
2013-06-24 01:47:00,76.5,68.8,30.00,WSW,248,4.5,5.4,77,0.00,,,0.00,WUHU216HW,2013-06-24 05:47:00,
2013-06-24 01:52:00,76.3,68.6,30.00,SW,225,4.0,5.4,77,0.00,,,0.00,WUHU216HW,2013-06-24 05:52:00,
2013-06-24 01:57:00,76.0,68.7,30.00,SW,225,1.8,4.7,78,0.00,,,0.00,WUHU216HW,2013-06-24 05:57:00,
2013-06-24 02:02:00,76.0,68.7,30.00,SW,225,3.8,5.1,78,0.00,,,0.00,WUHU216HW,2013-06-24 06:02:00,
2013-06-24 02:07:00,76.0,68.7,30.00,SW,225,3.8,5.1,78,0.00,,,0.00,WUHU216HW,2013-06-24 06:07:00,
2013-06-24 02:12:00,76.1,68.8,30.00,SSW,203,3.4,5.6,78,0.00,,,0.00,WUHU216HW,2013-06-24 06:12:00,
2013-06-24 02:17:00,76.0,68.7,30.00,SW,225,4.0,5.6,78,0.00,,,0.00,WUHU216HW,2013-06-24 06:17:00,
2013-06-24 02:22:00,76.0,68.7,30.00,SW,225,3.4,5.4,78,0.00,,,0.00,WUHU216HW,2013-06-24 06:22:00,
2013-06-24 02:27:00,75.6,68.7,30.00,WSW,248,2.9,5.1,79,0.00,,,0.00,WUHU216HW,2013-06-24 06:27:00,
2013-06-24 02:32:00,75.4,68.5,30.00,WSW,248,2.5,5.4,79,0.00,,,0.00,WUHU216HW,2013-06-24 06:32:00,
2013-06-24 02:37:00,75.2,68.8,29.99,SW,225,2.9,5.4,80,0.00,,,0.00,WUHU216HW,2013-06-24 06:37:00,
2013-06-24 02:42:00,75.4,69.0,30.00,WSW,248,2.9,3.8,80,0.00,,,0.00,WUHU216HW,2013-06-24 06:42:00,
2013-06-24 02:48:00,75.4,68.5,29.99,SW,225,4.7,4.7,79,0.00,,,0.00,WUHU216HW,2013-06-24 06:48:00,
2013-06-24 02:53:00,75.4,68.5,29.99,WSW,248,3.8,6.3,79,0.00,,,0.00,WUHU216HW,2013-06-24 06:53:00,
2013-06-24 02:58:00,75.2,68.4,29.99,SW,225,3.1,6.3,79,0.00,,,0.00,WUHU216HW,2013-06-24 06:58:00,
2013-06-24 03:03:00,75.1,69.0,29.99,SW,225,2.2,4.5,81,0.00,,,0.00,WUHU216HW,2013-06-24 07:03:00,
2013-06-24 03:08:00,74.9,68.8,29.99,WSW,248,2.5,4.7,81,0.00,,,0.00,WUHU216HW,2013-06-24 07:08:00,
2013-06-24 03:13:00,74.9,68.8,29.99,SSW,203,4.0,4.7,81,0.00,,,0.00,WUHU216HW,2013-06-24 07:13:00,
2013-06-24 03:18:00,75.1,69.0,29.99,WSW,248,3.6,4.7,81,0.00,,,0.00,WUHU216HW,2013-06-24 07:18:00,
2013-06-24 03:23:00,75.1,69.0,29.99,SSW,203,4.0,4.5,81,0.00,,,0.00,WUHU216HW,2013-06-24 07:23:00,
2013-06-24 03:28:00,75.1,69.0,29.99,SSW,203,3.8,4.5,81,0.00,,,0.00,WUHU216HW,2013-06-24 07:28:00,
2013-06-24 03:33:00,74.5,68.4,29.99,WSW,248,6.5,6.5,81,0.00,,,0.00,WUHU216HW,2013-06-24 07:33:00,
2013-06-24 03:38:00,74.3,68.6,29.98,SSW,203,3.6,6.5,82,0.00,,,0.00,WUHU216HW,2013-06-24 07:38:00,
2013-06-24 03:43:00,74.2,68.4,29.98,SW,225,2.5,6.5,82,0.00,,,0.00,WUHU216HW,2013-06-24 07:43:00,
2013-06-24 03:48:00,74.3,68.6,29.99,SW,225,3.4,6.3,82,0.00,,,0.00,WUHU216HW,2013-06-24 07:48:00,
2013-06-24 03:53:00,74.5,68.8,29.98,SW,225,3.4,5.4,82,0.00,,,0.00,WUHU216HW,2013-06-24 07:53:00,
2013-06-24 03:58:00,74.5,68.8,29.98,South,180,2.5,5.4,82,0.00,,,0.00,WUHU216HW,2013-06-24 07:58:00,
2013-06-24 04:04:00,74.3,68.6,29.99,South,180,2.9,5.4,82,0.00,,,0.00,WUHU216HW,2013-06-24 08:04:00,
2013-06-24 04:09:00,73.8,68.3,29.98,WSW,248,3.6,4.7,83,0.00,,,0.00,WUHU216HW,2013-06-24 08:09:00,
2013-06-24 04:14:00,73.6,68.5,29.98,SSW,203,2.5,4.9,84,0.00,,,0.00,WUHU216HW,2013-06-24 08:14:00,
2013-06-24 04:19:00,73.6,68.5,29.98,SW,225,4.0,5.4,84,0.00,,,0.00,WUHU216HW,2013-06-24 08:19:00,
2013-06-24 04:25:00,73.8,68.7,29.98,SW,225,3.4,5.4,84,0.00,,,0.00,WUHU216HW,2013-06-24 08:25:00,
2013-06-24 04:30:00,73.8,68.3,29.98,SW,225,3.1,5.4,83,0.00,,,0.00,WUHU216HW,2013-06-24 08:30:00,
2013-06-24 04:35:00,73.8,68.7,29.98,SW,225,3.4,5.4,84,0.00,,,0.00,WUHU216HW,2013-06-24 08:35:00,
2013-06-24 04:41:00,73.4,68.7,29.98,SW,225,3.8,6.3,85,0.00,,,0.00,WUHU216HW,2013-06-24 08:41:00,
2013-06-24 04:46:00,73.1,68.3,29.98,SW,225,1.8,6.3,85,0.00,,,0.00,WUHU216HW,2013-06-24 08:46:00,
2013-06-24 04:51:00,72.7,68.0,29.98,SSW,203,2.2,5.4,85,0.00,,,0.00,WUHU216HW,2013-06-24 08:51:00,
2013-06-24 04:56:00,73.1,68.3,29.98,SSW,203,3.8,5.6,85,0.00,,,0.00,WUHU216HW,2013-06-24 08:56:00,
2013-06-24 05:02:00,73.1,68.3,29.98,SW,225,2.5,5.6,85,0.00,,,0.00,WUHU216HW,2013-06-24 09:02:00,
2013-06-24 05:07:00,72.9,68.1,29.98,SW,225,2.0,3.6,85,0.00,,,0.00,WUHU216HW,2013-06-24 09:07:00,
2013-06-24 05:13:00,72.7,68.0,29.97,SW,225,2.2,3.6,85,0.00,,,0.00,WUHU216HW,2013-06-24 09:13:00,
2013-06-24 05:18:00,72.4,68.0,29.97,SW,225,2.2,3.8,86,0.00,,,0.00,WUHU216HW,2013-06-24 09:18:00,
2013-06-24 05:24:00,72.4,68.0,29.97,SSW,203,2.5,3.8,86,0.00,,,0.00,WUHU216HW,2013-06-24 09:24:00,
2013-06-24 05:29:00,72.5,68.1,29.97,SW,225,2.7,3.8,86,0.00,,,0.00,WUHU216HW,2013-06-24 09:29:00,
2013-06-24 05:34:00,72.5,67.8,29.97,SW,225,1.8,4.3,85,0.00,,,0.00,WUHU216HW,2013-06-24 09:34:00,
2013-06-24 05:39:00,72.7,68.0,29.97,SW,225,2.7,4.3,85,0.00,,,0.00,WUHU216HW,2013-06-24 09:39:00,
2013-06-24 05:44:00,72.5,68.1,29.97,SSW,203,3.4,4.5,86,0.00,,,0.00,WUHU216HW,2013-06-24 09:44:00,
2013-06-24 05:49:00,72.5,68.1,29.97,SSW,203,2.7,4.5,86,0.00,,,0.00,WUHU216HW,2013-06-24 09:49:00,
2013-06-24 05:54:00,72.4,68.0,29.98,SW,225,2.2,4.5,86,0.00,,,0.00,WUHU216HW,2013-06-24 09:54:00,
2013-06-24 06:00:00,72.5,68.1,29.97,SW,225,3.4,4.0,86,0.00,,,0.00,WUHU216HW,2013-06-24 10:00:00,
2013-06-24 06:05:00,72.9,68.5,29.97,SW,225,2.5,4.5,86,0.00,,,0.00,WUHU216HW,2013-06-24 10:05:00,
2013-06-24 06:10:00,72.9,68.1,29.97,SSW,203,1.8,5.4,85,0.00,,,0.00,WUHU216HW,2013-06-24 10:10:00,
2013-06-24 06:15:00,73.1,68.7,29.98,SW,225,2.5,5.4,86,0.00,,,0.00,WUHU216HW,2013-06-24 10:15:00,
2013-06-24 06:20:00,72.7,68.3,29.98,SSW,203,1.8,4.0,86,0.00,,,0.00,WUHU216HW,2013-06-24 10:20:00,
2013-06-24 06:25:00,72.9,68.5,29.98,WSW,248,1.1,2.9,86,0.00,,,0.00,WUHU216HW,2013-06-24 10:25:00,
2013-06-24 06:30:00,73.1,68.7,29.98,WSW,248,3.4,4.7,86,0.00,,,0.00,WUHU216HW,2013-06-24 10:30:00,
2013-06-24 06:35:00,73.4,68.7,29.98,SSW,203,2.5,4.7,85,0.00,,,0.00,WUHU216HW,2013-06-24 10:35:00,
2013-06-24 06:40:00,74.2,69.0,29.98,WSW,248,4.0,4.7,84,0.00,,,0.00,WUHU216HW,2013-06-24 10:40:00,
2013-06-24 06:45:00,74.5,69.4,29.98,WSW,248,4.9,5.4,84,0.00,,,0.00,WUHU216HW,2013-06-24 10:45:00,
2013-06-24 06:51:00,74.5,69.0,29.98,SSW,203,2.7,5.4,83,0.00,,,0.00,WUHU216HW,2013-06-24 10:51:00,
2013-06-24 06:56:00,74.9,69.4,29.98,SW,225,3.6,6.0,83,0.00,,,0.00,WUHU216HW,2013-06-24 10:56:00,
2013-06-24 07:01:00,75.1,69.6,29.98,WSW,248,1.1,6.0,83,0.00,,,0.00,WUHU216HW,2013-06-24 11:01:00,
2013-06-24 07:06:00,75.2,69.5,29.98,SW,225,1.8,5.4,82,0.00,,,0.00,WUHU216HW,2013-06-24 11:06:00,
2013-06-24 07:11:00,75.8,69.6,29.98,West,270,1.8,5.1,81,0.00,,,0.00,WUHU216HW,2013-06-24 11:11:00,
2013-06-24 07:16:00,76.0,69.8,29.98,WSW,248,1.6,5.1,81,0.00,,,0.00,WUHU216HW,2013-06-24 11:16:00,
2013-06-24 07:21:00,76.0,69.8,29.98,SSW,203,3.4,4.0,81,0.00,,,0.00,WUHU216HW,2013-06-24 11:21:00,
2013-06-24 07:26:00,75.8,69.6,29.98,WSW,248,1.8,5.6,81,0.00,,,0.00,WUHU216HW,2013-06-24 11:26:00,
2013-06-24 07:31:00,75.6,69.4,29.98,WSW,248,3.6,6.5,81,0.00,,,0.00,WUHU216HW,2013-06-24 11:31:00,
2013-06-24 07:37:00,75.6,69.4,29.98,West,270,2.2,6.5,81,0.00,,,0.00,WUHU216HW,2013-06-24 11:37:00,
2013-06-24 07:42:00,75.8,69.6,29.98,SW,225,3.4,6.3,81,0.00,,,0.00,WUHU216HW,2013-06-24 11:42:00,
2013-06-24 07:47:00,76.0,69.8,29.98,WSW,248,3.4,6.0,81,0.00,,,0.00,WUHU216HW,2013-06-24 11:47:00,
2013-06-24 07:52:00,76.1,69.9,29.98,SSW,203,2.0,5.4,81,0.00,,,0.00,WUHU216HW,2013-06-24 11:52:00,
2013-06-24 07:57:00,76.3,69.8,29.98,SSW,203,4.7,5.8,80,0.00,,,0.00,WUHU216HW,2013-06-24 11:57:00,
2013-06-24 08:02:00,76.7,70.0,29.98,WSW,248,2.5,5.8,80,0.00,,,0.00,WUHU216HW,2013-06-24 12:02:00,
2013-06-24 08:08:00,77.0,70.0,29.98,WSW,248,4.7,4.7,79,0.00,,,0.00,WUHU216HW,2013-06-24 12:08:00,
2013-06-24 08:13:00,77.4,70.0,29.98,WSW,248,2.0,6.0,78,0.00,,,0.00,WUHU216HW,2013-06-24 12:13:00,
2013-06-24 08:18:00,78.1,70.3,29.98,West,270,3.1,6.0,77,0.00,,,0.00,WUHU216HW,2013-06-24 12:18:00,
2013-06-24 08:23:00,78.5,70.3,29.98,SW,225,3.8,5.4,76,0.00,,,0.00,WUHU216HW,2013-06-24 12:23:00,
2013-06-24 08:28:00,79.0,70.4,29.97,SW,225,4.7,5.4,75,0.00,,,0.00,WUHU216HW,2013-06-24 12:28:00,
2013-06-24 08:33:00,79.2,69.8,29.98,SW,225,4.7,5.4,73,0.00,,,0.00,WUHU216HW,2013-06-24 12:33:00,
2013-06-24 08:38:00,79.6,69.8,29.97,WSW,248,2.9,5.8,72,0.00,,,0.00,WUHU216HW,2013-06-24 12:38:00,
2013-06-24 08:43:00,79.9,70.5,29.97,SSW,203,3.4,5.8,73,0.00,,,0.00,WUHU216HW,2013-06-24 12:43:00,
2013-06-24 08:48:00,80.3,70.0,29.97,WSW,248,4.3,6.9,71,0.00,,,0.00,WUHU216HW,2013-06-24 12:48:00,
2013-06-24 08:54:00,80.6,70.4,29.97,West,270,3.4,7.6,71,0.00,,,0.00,WUHU216HW,2013-06-24 12:54:00,
2013-06-24 09:00:00,81.2,70.5,29.97,WNW,293,3.8,5.6,70,0.00,,,0.00,WUHU216HW,2013-06-24 13:00:00,
2013-06-24 09:05:00,81.5,70.8,29.97,SW,225,3.1,6.3,70,0.00,,,0.00,WUHU216HW,2013-06-24 13:05:00,
2013-06-24 09:10:00,82.4,72.1,29.97,WSW,248,2.0,6.3,71,0.00,,,0.00,WUHU216HW,2013-06-24 13:10:00,
2013-06-24 09:15:00,83.5,71.4,29.97,SW,225,3.8,5.4,67,0.00,,,0.00,WUHU216HW,2013-06-24 13:15:00,
2013-06-24 09:20:00,84.6,72.0,29.97,SW,225,5.8,8.5,66,0.00,,,0.00,WUHU216HW,2013-06-24 13:20:00,
2013-06-24 09:25:00,85.9,71.4,29.97,West,270,4.0,8.5,62,0.00,,,0.00,WUHU216HW,2013-06-24 13:25:00,
2013-06-24 09:30:00,85.7,71.2,29.96,SW,225,3.4,6.7,62,0.00,,,0.00,WUHU216HW,2013-06-24 13:30:00,
2013-06-24 09:35:00,86.0,71.5,29.96,SW,225,3.4,6.9,62,0.00,,,0.00,WUHU216HW,2013-06-24 13:35:00,
2013-06-24 09:41:00,86.4,72.3,29.96,SW,225,5.1,6.9,63,0.00,,,0.00,WUHU216HW,2013-06-24 13:41:00,
2013-06-24 09:46:00,87.5,72.5,29.96,NW,315,2.5,6.9,61,0.00,,,0.00,WUHU216HW,2013-06-24 13:46:00,
2013-06-24 09:51:00,88.4,71.7,29.96,SW,225,2.7,6.9,58,0.00,,,0.00,WUHU216HW,2013-06-24 13:51:00,
2013-06-24 09:56:00,88.2,71.7,29.95,West,270,5.1,6.7,58,0.00,,,0.00,WUHU216HW,2013-06-24 13:56:00,
2013-06-24 10:01:00,88.6,71.4,29.95,SW,225,4.7,6.0,57,0.00,,,0.00,WUHU216HW,2013-06-24 14:01:00,
2013-06-24 10:06:00,88.9,71.2,29.95,SW,225,4.9,5.4,56,0.00,,,0.00,WUHU216HW,2013-06-24 14:06:00,
2013-06-24 10:11:00,89.6,71.8,29.95,SW,225,2.0,6.7,56,0.00,,,0.00,WUHU216HW,2013-06-24 14:11:00,
2013-06-24 10:16:00,90.7,72.3,29.96,WSW,248,6.3,6.9,55,0.00,,,0.00,WUHU216HW,2013-06-24 14:16:00,
2013-06-24 10:21:00,91.1,71.5,29.95,SW,225,3.4,6.9,53,0.00,,,0.00,WUHU216HW,2013-06-24 14:21:00,
2013-06-24 10:26:00,90.0,70.0,29.95,WNW,293,3.1,7.2,52,0.00,,,0.00,WUHU216HW,2013-06-24 14:26:00,
2013-06-24 10:31:00,90.7,71.2,29.96,WSW,248,5.1,7.2,53,0.00,,,0.00,WUHU216HW,2013-06-24 14:31:00,
2013-06-24 10:37:00,90.5,70.5,29.95,West,270,2.5,6.3,52,0.00,,,0.00,WUHU216HW,2013-06-24 14:37:00,
2013-06-24 10:42:00,90.9,71.4,29.96,West,270,6.5,8.5,53,0.00,,,0.00,WUHU216HW,2013-06-24 14:42:00,
2013-06-24 10:47:00,91.8,71.1,29.96,WSW,248,3.4,8.5,51,0.00,,,0.00,WUHU216HW,2013-06-24 14:47:00,
2013-06-24 10:52:00,92.3,70.4,29.95,SW,225,4.5,4.5,49,0.00,,,0.00,WUHU216HW,2013-06-24 14:52:00,
2013-06-24 10:58:00,92.5,70.6,29.95,SW,225,4.9,6.5,49,0.00,,,0.00,WUHU216HW,2013-06-24 14:58:00,
2013-06-24 11:03:00,92.9,70.8,29.95,SW,225,5.1,6.5,49,0.00,,,0.00,WUHU216HW,2013-06-24 15:03:00,
2013-06-24 11:08:00,93.2,70.6,29.95,WNW,293,7.6,7.6,48,0.00,,,0.00,WUHU216HW,2013-06-24 15:08:00,
2013-06-24 11:13:00,93.8,69.8,29.95,SW,225,7.2,8.5,46,0.00,,,0.00,WUHU216HW,2013-06-24 15:13:00,
2013-06-24 11:18:00,93.2,71.2,29.95,WNW,293,2.7,8.5,49,0.00,,,0.00,WUHU216HW,2013-06-24 15:18:00,
2013-06-24 11:23:00,94.1,71.4,29.95,WNW,293,4.3,8.5,48,0.00,,,0.00,WUHU216HW,2013-06-24 15:23:00,
2013-06-24 11:28:00,95.6,70.7,29.95,SW,225,2.5,8.5,45,0.00,,,0.00,WUHU216HW,2013-06-24 15:28:00,
2013-06-24 11:33:00,95.8,70.3,29.95,SW,225,4.7,4.7,44,0.00,,,0.00,WUHU216HW,2013-06-24 15:33:00,
2013-06-24 11:38:00,95.8,71.7,29.95,West,270,6.0,6.0,46,0.00,,,0.00,WUHU216HW,2013-06-24 15:38:00,
2013-06-24 11:43:00,95.6,70.7,29.95,NNW,338,2.2,7.2,45,0.00,,,0.00,WUHU216HW,2013-06-24 15:43:00,
2013-06-24 11:48:00,95.6,68.8,29.95,West,270,5.8,8.9,42,0.00,,,0.00,WUHU216HW,2013-06-24 15:48:00,
2013-06-24 11:54:00,94.7,70.7,29.94,WSW,248,2.0,8.9,46,0.00,,,0.00,WUHU216HW,2013-06-24 15:54:00,
2013-06-24 11:59:00,96.1,71.3,29.94,SW,225,1.3,4.3,45,0.00,,,0.00,WUHU216HW,2013-06-24 15:59:00,
2013-06-24 12:04:00,96.7,71.1,29.95,SW,225,2.9,6.9,44,0.00,,,0.00,WUHU216HW,2013-06-24 16:04:00,
2013-06-24 12:09:00,97.6,70.6,29.94,SSW,203,4.0,6.9,42,0.00,,,0.00,WUHU216HW,2013-06-24 16:09:00,
2013-06-24 12:14:00,97.9,71.6,29.95,NNW,338,1.1,4.5,43,0.00,,,0.00,WUHU216HW,2013-06-24 16:14:00,
2013-06-24 12:20:00,98.6,71.6,29.95,West,270,2.2,4.9,42,0.00,,,0.00,WUHU216HW,2013-06-24 16:20:00,
2013-06-24 12:25:00,97.9,67.9,29.95,NW,315,2.2,6.5,38,0.00,,,0.00,WUHU216HW,2013-06-24 16:25:00,
2013-06-24 12:30:00,97.6,69.2,29.94,NW,315,1.8,9.8,40,0.00,,,0.00,WUHU216HW,2013-06-24 16:30:00,
2013-06-24 12:35:00,97.7,68.6,29.94,NW,315,4.7,9.8,39,0.00,,,0.00,WUHU216HW,2013-06-24 16:35:00,
2013-06-24 12:40:00,97.2,69.0,29.95,NNE,23,2.9,4.9,40,0.00,,,0.00,WUHU216HW,2013-06-24 16:40:00,
2013-06-24 12:45:00,97.4,69.8,29.95,NNE,23,4.3,4.9,41,0.00,,,0.00,WUHU216HW,2013-06-24 16:45:00,
2013-06-24 12:50:00,97.9,69.6,29.94,NNE,23,2.9,4.7,40,0.00,,,0.00,WUHU216HW,2013-06-24 16:50:00,
2013-06-24 12:55:00,97.7,69.4,29.94,WNW,293,3.8,8.3,40,0.00,,,0.00,WUHU216HW,2013-06-24 16:55:00,
2013-06-24 13:00:00,97.9,67.9,29.94,West,270,6.7,8.3,38,0.00,,,0.00,WUHU216HW,2013-06-24 17:00:00,
2013-06-24 13:05:00,98.1,68.0,29.94,West,270,4.7,6.7,38,0.00,,,0.00,WUHU216HW,2013-06-24 17:05:00,
2013-06-24 13:11:00,97.7,68.6,29.94,NNE,23,3.1,5.1,39,0.00,,,0.00,WUHU216HW,2013-06-24 17:11:00,
2013-06-24 13:16:00,97.0,68.0,29.94,WSW,248,2.2,10.1,39,0.00,,,0.00,WUHU216HW,2013-06-24 17:16:00,
2013-06-24 13:21:00,96.1,68.6,29.94,West,270,1.3,8.7,41,0.00,,,0.00,WUHU216HW,2013-06-24 17:21:00,
2013-06-24 13:26:00,96.1,68.0,29.94,NW,315,3.4,6.9,40,0.00,,,0.00,WUHU216HW,2013-06-24 17:26:00,
2013-06-24 13:31:00,96.7,68.4,29.94,WNW,293,3.8,6.9,40,0.00,,,0.00,WUHU216HW,2013-06-24 17:31:00,
2013-06-24 13:37:00,97.2,67.2,29.94,WSW,248,4.5,6.3,38,0.00,,,0.00,WUHU216HW,2013-06-24 17:37:00,
2013-06-24 13:42:00,96.7,68.4,29.93,West,270,3.1,6.3,40,0.00,,,0.00,WUHU216HW,2013-06-24 17:42:00,
2013-06-24 13:47:00,96.8,67.8,29.93,WSW,248,2.0,6.9,39,0.00,,,0.00,WUHU216HW,2013-06-24 17:47:00,
2013-06-24 13:53:00,96.8,68.6,29.93,West,270,4.3,6.9,40,0.00,,,0.00,WUHU216HW,2013-06-24 17:53:00,
2013-06-24 13:59:00,96.1,68.0,29.93,NNW,338,1.3,6.9,40,0.00,,,0.00,WUHU216HW,2013-06-24 17:59:00,
2013-06-24 14:04:00,96.3,68.1,29.93,SSW,203,1.8,5.6,40,0.00,,,0.00,WUHU216HW,2013-06-24 18:04:00,
2013-06-24 14:09:00,96.5,67.4,29.92,WSW,248,1.1,6.5,39,0.00,,,0.00,WUHU216HW,2013-06-24 18:09:00,
2013-06-24 14:14:00,96.8,67.8,29.92,SW,225,2.5,6.5,39,0.00,,,0.00,WUHU216HW,2013-06-24 18:14:00,
2013-06-24 14:19:00,97.0,68.0,29.92,NW,315,3.8,5.4,39,0.00,,,0.00,WUHU216HW,2013-06-24 18:19:00,
2013-06-24 14:24:00,97.2,67.2,29.92,NW,315,1.6,5.8,38,0.00,,,0.00,WUHU216HW,2013-06-24 18:24:00,
2013-06-24 14:30:00,97.2,67.2,29.92,West,270,3.4,6.0,38,0.00,,,0.00,WUHU216HW,2013-06-24 18:30:00,
2013-06-24 14:35:00,96.8,67.0,29.92,SE,135,6.5,6.9,38,0.00,,,0.00,WUHU216HW,2013-06-24 18:35:00,
2013-06-24 14:40:00,96.8,67.0,29.91,WNW,293,3.4,7.4,38,0.00,,,0.00,WUHU216HW,2013-06-24 18:40:00,
2013-06-24 14:45:00,97.2,67.2,29.91,North,0,2.5,7.4,38,0.00,,,0.00,WUHU216HW,2013-06-24 18:45:00,
2013-06-24 14:50:00,97.2,65.6,29.91,WSW,248,5.1,7.4,36,0.00,,,0.00,WUHU216HW,2013-06-24 18:50:00,
2013-06-24 14:55:00,96.5,66.6,29.91,SW,225,5.6,7.4,38,0.00,,,0.00,WUHU216HW,2013-06-24 18:55:00,
2013-06-24 15:00:00,96.8,66.1,29.91,SW,225,4.5,5.6,37,0.00,,,0.00,WUHU216HW,2013-06-24 19:00:00,
2013-06-24 15:06:00,96.8,65.3,29.91,West,270,4.0,6.9,36,0.00,,,0.00,WUHU216HW,2013-06-24 19:06:00,
2013-06-24 15:11:00,96.8,65.3,29.91,WNW,293,0.9,6.9,36,0.00,,,0.00,WUHU216HW,2013-06-24 19:11:00,
2013-06-24 15:16:00,96.7,66.0,29.91,SW,225,3.1,6.0,37,0.00,,,0.00,WUHU216HW,2013-06-24 19:16:00,
2013-06-24 15:21:00,96.5,66.6,29.90,West,270,2.9,4.5,38,0.00,,,0.00,WUHU216HW,2013-06-24 19:21:00,
2013-06-24 15:26:00,95.9,67.0,29.90,SSW,203,4.3,4.5,39,0.00,,,0.00,WUHU216HW,2013-06-24 19:26:00,
2013-06-24 15:31:00,96.1,68.0,29.90,SW,225,2.7,5.4,40,0.00,,,0.00,WUHU216HW,2013-06-24 19:31:00,
2013-06-24 15:36:00,96.3,67.2,29.90,West,270,2.7,6.5,39,0.00,,,0.00,WUHU216HW,2013-06-24 19:36:00,
2013-06-24 15:42:00,96.3,66.4,29.90,WSW,248,3.4,6.9,38,0.00,,,0.00,WUHU216HW,2013-06-24 19:42:00,
2013-06-24 15:47:00,96.5,67.4,29.90,WNW,293,3.1,6.9,39,0.00,,,0.00,WUHU216HW,2013-06-24 19:47:00,
2013-06-24 15:52:00,96.7,68.4,29.90,West,270,6.3,6.5,40,0.00,,,0.00,WUHU216HW,2013-06-24 19:52:00,
2013-06-24 15:57:00,96.3,68.8,29.89,SW,225,3.4,7.2,41,0.00,,,0.00,WUHU216HW,2013-06-24 19:57:00,
2013-06-24 16:02:00,96.3,69.4,29.89,West,270,8.7,8.7,42,0.00,,,0.00,WUHU216HW,2013-06-24 20:02:00,
2013-06-24 16:07:00,96.1,69.3,29.89,SSW,203,3.8,8.7,42,0.00,,,0.00,WUHU216HW,2013-06-24 20:07:00,
2013-06-24 16:12:00,95.2,69.1,29.89,West,270,7.2,11.9,43,0.00,,,0.00,WUHU216HW,2013-06-24 20:12:00,
2013-06-24 16:17:00,95.8,69.6,29.88,WNW,293,4.5,11.9,43,0.00,,,0.00,WUHU216HW,2013-06-24 20:17:00,
2013-06-24 16:22:00,95.8,68.3,29.88,WSW,248,4.0,7.2,41,0.00,,,0.00,WUHU216HW,2013-06-24 20:22:00,
2013-06-24 16:28:00,95.8,68.3,29.88,SW,225,1.8,9.2,41,0.00,,,0.00,WUHU216HW,2013-06-24 20:28:00,
2013-06-24 16:33:00,95.6,68.1,29.88,WSW,248,3.4,9.2,41,0.00,,,0.00,WUHU216HW,2013-06-24 20:33:00,
2013-06-24 16:38:00,95.4,68.0,29.88,West,270,2.0,5.8,41,0.00,,,0.00,WUHU216HW,2013-06-24 20:38:00,
2013-06-24 16:43:00,95.8,68.9,29.88,South,180,2.0,5.8,42,0.00,,,0.00,WUHU216HW,2013-06-24 20:43:00,
2013-06-24 16:48:00,95.8,68.9,29.88,SSW,203,4.0,7.6,42,0.00,,,0.00,WUHU216HW,2013-06-24 20:48:00,
2013-06-24 16:53:00,95.4,69.3,29.88,SSW,203,6.3,7.6,43,0.00,,,0.00,WUHU216HW,2013-06-24 20:53:00,
2013-06-24 16:58:00,95.2,69.1,29.87,West,270,2.9,9.2,43,0.00,,,0.00,WUHU216HW,2013-06-24 20:58:00,
2013-06-24 17:03:00,95.0,69.7,29.87,WNW,293,5.4,9.2,44,0.00,,,0.00,WUHU216HW,2013-06-24 21:03:00,
2013-06-24 17:09:00,95.2,69.8,29.87,SW,225,4.5,5.4,44,0.00,,,0.00,WUHU216HW,2013-06-24 21:09:00,
2013-06-24 17:14:00,95.2,69.8,29.87,SW,225,3.1,6.3,44,0.00,,,0.00,WUHU216HW,2013-06-24 21:14:00,
2013-06-24 17:20:00,95.0,70.3,29.87,WSW,248,2.5,6.3,45,0.00,,,0.00,WUHU216HW,2013-06-24 21:20:00,
2013-06-24 17:25:00,95.0,70.3,29.87,SW,225,2.5,5.8,45,0.00,,,0.00,WUHU216HW,2013-06-24 21:25:00,
2013-06-24 17:30:00,94.7,71.3,29.88,WSW,248,2.9,5.8,47,0.00,,,0.00,WUHU216HW,2013-06-24 21:30:00,
2013-06-24 17:35:00,94.3,70.9,29.87,WSW,248,1.8,5.1,47,0.00,,,0.00,WUHU216HW,2013-06-24 21:35:00,
2013-06-24 17:40:00,94.3,70.9,29.87,West,270,3.8,5.1,47,0.00,,,0.00,WUHU216HW,2013-06-24 21:40:00,
2013-06-24 17:45:00,94.7,70.7,29.88,WNW,293,2.5,4.0,46,0.00,,,0.00,WUHU216HW,2013-06-24 21:45:00,
2013-06-24 17:50:00,94.5,70.5,29.88,West,270,2.2,5.8,46,0.00,,,0.00,WUHU216HW,2013-06-24 21:50:00,
2013-06-24 17:55:00,94.1,70.7,29.88,WSW,248,2.7,5.8,47,0.00,,,0.00,WUHU216HW,2013-06-24 21:55:00,
2013-06-24 18:00:00,94.0,70.6,29.88,SW,225,2.5,4.3,47,0.00,,,0.00,WUHU216HW,2013-06-24 22:00:00,
2013-06-24 18:06:00,93.8,71.0,29.87,South,180,2.5,5.4,48,0.00,,,0.00,WUHU216HW,2013-06-24 22:06:00,
2013-06-24 18:11:00,93.8,71.0,29.88,WNW,293,6.0,6.0,48,0.00,,,0.00,WUHU216HW,2013-06-24 22:11:00,
2013-06-24 18:16:00,93.4,70.8,29.88,West,270,2.0,6.0,48,0.00,,,0.00,WUHU216HW,2013-06-24 22:16:00,
2013-06-24 18:21:00,93.2,70.6,29.88,WSW,248,1.1,6.0,48,0.00,,,0.00,WUHU216HW,2013-06-24 22:21:00,
2013-06-24 18:26:00,92.9,70.8,29.88,NNE,23,1.8,4.0,49,0.00,,,0.00,WUHU216HW,2013-06-24 22:26:00,
2013-06-24 18:31:00,92.7,70.7,29.89,SSE,158,2.5,6.9,49,0.00,,,0.00,WUHU216HW,2013-06-24 22:31:00,
2013-06-24 18:36:00,90.7,69.0,29.90,NNE,23,4.9,9.8,49,0.00,,,0.00,WUHU216HW,2013-06-24 22:36:00,
2013-06-24 18:41:00,88.4,67.4,29.90,NE,45,2.5,10.5,50,0.00,,,0.00,WUHU216HW,2013-06-24 22:41:00,
2013-06-24 18:46:00,87.1,67.4,29.90,NNE,23,7.4,10.5,52,0.00,,,0.00,WUHU216HW,2013-06-24 22:46:00,
2013-06-24 18:52:00,86.0,66.9,29.89,NNW,338,7.6,12.8,53,0.00,,,0.00,WUHU216HW,2013-06-24 22:52:00,
2013-06-24 18:57:00,85.0,66.0,29.90,NNE,23,1.1,12.8,53,0.00,,,0.00,WUHU216HW,2013-06-24 22:57:00,
2013-06-24 19:02:00,84.6,67.1,29.91,NNE,23,5.8,9.8,56,0.00,,,0.00,WUHU216HW,2013-06-24 23:02:00,
2013-06-24 19:07:00,83.9,67.5,29.93,WNW,293,1.3,8.5,58,0.00,,,0.00,WUHU216HW,2013-06-24 23:07:00,
2013-06-24 19:12:00,82.4,68.5,29.92,WSW,248,1.8,5.4,63,0.01,,,0.01,WUHU216HW,2013-06-24 23:12:00,
2013-06-24 19:18:00,80.6,70.4,29.94,SW,225,3.1,3.6,71,0.03,,,0.03,WUHU216HW,2013-06-24 23:18:00,
2013-06-24 19:23:00,78.7,69.2,29.93,East,90,1.8,4.0,73,0.05,,,0.06,WUHU216HW,2013-06-24 23:23:00,
2013-06-24 19:28:00,77.6,69.0,29.92,ENE,68,1.3,3.8,75,0.07,,,0.08,WUHU216HW,2013-06-24 23:28:00,
2013-06-24 19:33:00,77.0,68.5,29.92,East,90,0.9,2.0,75,0.08,,,0.08,WUHU216HW,2013-06-24 23:33:00,
2013-06-24 19:38:00,76.5,68.8,29.92,East,90,1.1,1.8,77,0.08,,,0.08,WUHU216HW,2013-06-24 23:38:00,
2013-06-24 19:43:00,76.1,69.2,29.91,ENE,68,1.8,1.8,79,0.08,,,0.08,WUHU216HW,2013-06-24 23:43:00,
2013-06-24 19:48:00,76.0,69.0,29.91,North,0,0.7,1.8,79,0.08,,,0.08,WUHU216HW,2013-06-24 23:48:00,
2013-06-24 19:53:00,75.8,71.6,29.92,SW,225,1.3,2.9,87,0.08,,,0.08,WUHU216HW,2013-06-24 23:53:00,
2013-06-24 19:58:00,75.6,71.2,29.92,SW,225,1.1,2.9,86,0.08,,,0.08,WUHU216HW,2013-06-24 23:58:00,
2013-06-24 20:04:00,75.4,71.6,29.92,SW,225,2.5,2.7,88,0.08,,,0.08,WUHU216HW,2013-06-25 00:04:00,
2013-06-24 20:09:00,75.4,71.6,29.93,SW,225,3.4,4.9,88,0.07,,,0.08,WUHU216HW,2013-06-25 00:09:00,
2013-06-24 20:14:00,75.2,71.2,29.93,SW,225,1.1,4.9,87,0.07,,,0.08,WUHU216HW,2013-06-25 00:14:00,
2013-06-24 20:19:00,74.9,70.8,29.94,WSW,248,2.7,4.9,87,0.04,,,0.08,WUHU216HW,2013-06-25 00:19:00,
2013-06-24 20:24:00,74.7,70.3,29.94,SW,225,3.1,4.9,86,0.01,,,0.08,WUHU216HW,2013-06-25 00:24:00,
2013-06-24 20:30:00,74.7,70.3,29.94,SSW,203,2.0,4.0,86,0.00,,,0.08,WUHU216HW,2013-06-25 00:30:00,
2013-06-24 20:35:00,74.9,70.5,29.95,WSW,248,4.0,4.0,86,0.00,,,0.08,WUHU216HW,2013-06-25 00:35:00,
2013-06-24 20:40:00,74.7,70.9,29.95,SSW,203,2.9,4.7,88,0.00,,,0.08,WUHU216HW,2013-06-25 00:40:00,
2013-06-24 20:45:00,74.7,70.9,29.95,SSW,203,2.5,4.7,88,0.01,,,0.10,WUHU216HW,2013-06-25 00:45:00,
2013-06-24 20:50:00,74.5,70.7,29.95,SW,225,2.5,4.3,88,0.01,,,0.10,WUHU216HW,2013-06-25 00:50:00,
2013-06-24 20:55:00,74.3,70.9,29.94,SSW,203,2.0,3.4,89,0.01,,,0.10,WUHU216HW,2013-06-25 00:55:00,
2013-06-24 21:01:00,74.2,70.7,29.94,SSW,203,2.0,3.1,89,0.01,,,0.10,WUHU216HW,2013-06-25 01:01:00,
2013-06-24 21:06:00,74.0,70.6,29.95,SW,225,1.8,3.1,89,0.01,,,0.10,WUHU216HW,2013-06-25 01:06:00,
2013-06-24 21:11:00,74.0,70.2,29.95,SSW,203,2.7,3.6,88,0.01,,,0.10,WUHU216HW,2013-06-25 01:11:00,
2013-06-24 21:16:00,74.0,69.9,29.95,WSW,248,0.4,3.6,87,0.02,,,0.11,WUHU216HW,2013-06-25 01:16:00,
2013-06-24 21:22:00,74.0,69.9,29.95,SW,225,1.6,2.7,87,0.02,,,0.11,WUHU216HW,2013-06-25 01:22:00,
2013-06-24 21:27:00,74.0,69.9,29.95,SW,225,2.2,2.5,87,0.02,,,0.11,WUHU216HW,2013-06-25 01:27:00,
2013-06-24 21:32:00,73.8,69.8,29.95,SSW,203,1.1,2.2,87,0.02,,,0.11,WUHU216HW,2013-06-25 01:32:00,
2013-06-24 21:37:00,73.8,69.4,29.95,SW,225,1.3,2.5,86,0.02,,,0.11,WUHU216HW,2013-06-25 01:37:00,
2013-06-24 21:42:00,73.8,69.8,29.96,SW,225,1.3,3.6,87,0.01,,,0.11,WUHU216HW,2013-06-25 01:42:00,
2013-06-24 21:47:00,73.8,69.8,29.96,SW,225,2.0,3.6,87,0.01,,,0.11,WUHU216HW,2013-06-25 01:47:00,
2013-06-24 21:52:00,73.6,69.6,29.97,WSW,248,1.1,2.5,87,0.01,,,0.11,WUHU216HW,2013-06-25 01:52:00,
2013-06-24 21:58:00,73.4,68.7,29.96,SW,225,0.7,2.5,85,0.01,,,0.11,WUHU216HW,2013-06-25 01:58:00,
2013-06-24 22:03:00,73.1,69.7,29.96,SSW,203,0.9,1.6,89,0.02,,,0.12,WUHU216HW,2013-06-25 02:03:00,
2013-06-24 22:08:00,72.9,68.9,29.96,SSE,158,0.4,1.3,87,0.02,,,0.12,WUHU216HW,2013-06-25 02:08:00,
2013-06-24 22:13:00,72.7,69.3,29.96,WSW,248,1.8,1.8,89,0.01,,,0.12,WUHU216HW,2013-06-25 02:13:00,
2013-06-24 22:18:00,72.9,69.5,29.95,SW,225,2.2,2.5,89,0.01,,,0.12,WUHU216HW,2013-06-25 02:18:00,
2013-06-24 22:24:00,73.1,69.3,29.96,SW,225,1.8,2.5,88,0.01,,,0.12,WUHU216HW,2013-06-25 02:24:00,
2013-06-24 22:29:00,73.1,69.3,29.95,SW,225,1.1,2.5,88,0.01,,,0.12,WUHU216HW,2013-06-25 02:29:00,
2013-06-24 22:34:00,72.9,69.1,29.95,SSW,203,0.4,2.5,88,0.01,,,0.12,WUHU216HW,2013-06-25 02:34:00,
2013-06-24 22:39:00,72.7,68.7,29.95,SW,225,1.6,2.0,87,0.01,,,0.12,WUHU216HW,2013-06-25 02:39:00,
2013-06-24 22:44:00,72.7,68.7,29.95,WSW,248,3.1,3.1,87,0.01,,,0.12,WUHU216HW,2013-06-25 02:44:00,
2013-06-24 22:49:00,72.5,68.8,29.95,SW,225,0.9,3.1,88,0.01,,,0.12,WUHU216HW,2013-06-25 02:49:00,
2013-06-24 22:54:00,72.5,68.8,29.95,SW,225,1.1,3.1,88,0.01,,,0.12,WUHU216HW,2013-06-25 02:54:00,
2013-06-24 22:59:00,72.5,69.8,29.95,SW,225,0.4,1.1,91,0.00,,,0.12,WUHU216HW,2013-06-25 02:59:00,
2013-06-24 23:05:00,72.5,69.1,29.94,WSW,248,1.1,2.2,89,0.00,,,0.12,WUHU216HW,2013-06-25 03:05:00,
2013-06-24 23:10:00,72.5,69.1,29.93,SW,225,1.8,2.2,89,0.00,,,0.12,WUHU216HW,2013-06-25 03:10:00,
2013-06-24 23:16:00,72.7,68.9,29.93,WSW,248,1.1,1.8,88,0.00,,,0.12,WUHU216HW,2013-06-25 03:16:00,
2013-06-24 23:21:00,72.4,68.6,29.93,SW,225,1.8,1.8,88,0.00,,,0.12,WUHU216HW,2013-06-25 03:21:00,
2013-06-24 23:26:00,72.2,68.4,29.92,WSW,248,1.1,1.8,88,0.00,,,0.12,WUHU216HW,2013-06-25 03:26:00,
2013-06-24 23:31:00,72.0,68.0,29.92,SW,225,0.4,1.8,87,0.00,,,0.12,WUHU216HW,2013-06-25 03:31:00,
2013-06-24 23:36:00,72.2,68.8,29.92,SW,225,1.6,1.8,89,0.00,,,0.12,WUHU216HW,2013-06-25 03:36:00,
2013-06-24 23:41:00,72.4,68.6,29.92,SW,225,1.6,2.5,88,0.00,,,0.12,WUHU216HW,2013-06-25 03:41:00,
2013-06-24 23:46:00,72.4,68.6,29.92,SW,225,2.0,3.1,88,0.00,,,0.12,WUHU216HW,2013-06-25 03:46:00,
2013-06-24 23:51:00,72.4,68.3,29.92,WSW,248,1.8,4.0,87,0.00,,,0.12,WUHU216HW,2013-06-25 03:51:00,
2013-06-24 23:56:00,72.4,68.0,29.92,WSW,248,1.8,4.0,86,0.00,,,0.12,WUHU216HW,2013-06-25 03:56:00,